C/2008 A1 ( McNaught )

Japanese version
Home page
Total 5,708 html files since Dec. 4, 1995
Updated on April 19, 2008

---------------------------------------------------------------------

* Profile

Discovery Date January 10, 2008
Magnitude 15.2 mag
Discoverer R. H. McNaught (Siding Spring Observatory)

* Pictures

* Orbital Elements

Epoch 2008 Sept. 11.0 TT = JDT 2454720.5
T 2008 Sept. 29.13375 TT                                MPC
q   1.0730154            (2000.0)            P               Q
z  -0.0002792      Peri.  348.48312     +0.10879407     +0.15323197
 +/-0.0000165      Node   277.88570     -0.81501800     -0.55193625
e   1.0002996      Incl.   82.55055     -0.56913048     +0.81968674

* Finding Charts

* Magnitudes Graph

        m1 = 6.0 + 5 log d + 10.0 log r

---------------------------------------------------------------------

The orbital elements are published on M.P.E.C. 2008-F02.
The charts are made with StellaNavigator Ver.8 (AstroArts).
The magnitudes graphs are made with Comet for Windows.

---------------------------------------------------------------------

Copyright(C) 1995-2007 Seiichi Yoshida (comet@aerith.net). All rights reserved.